TimeMDT,TemperatureF,Dew PointF,Humidity,Sea Level PressureIn,VisibilityMPH,Wind Direction,Wind SpeedMPH,Gust SpeedMPH,PrecipitationIn,Events,Conditions,WindDirDegrees,DateUTC
12:35 AM,70.9,42.6,36,29.92,10.0,East,6.9,-,N/A,,Clear,100,2013-05-15 06:35:00
12:55 AM,70.7,43.7,38,29.90,10.0,SSE,4.6,-,N/A,,Scattered Clouds,150,2013-05-15 06:55:00
1:15 AM,69.8,41.9,36,29.89,10.0,North,4.6,-,N/A,,Scattered Clouds,10,2013-05-15 07:15:00
1:35 AM,70.2,38.8,32,29.89,10.0,East,10.4,-,N/A,,Clear,90,2013-05-15 07:35:00
1:55 AM,70.0,37.6,31,29.89,10.0,East,12.7,-,N/A,,Clear,90,2013-05-15 07:55:00
2:15 AM,69.6,37.6,31,29.89,10.0,East,13.8,19.6,N/A,,Clear,100,2013-05-15 08:15:00
2:35 AM,68.5,37.8,32,29.88,10.0,East,13.8,-,N/A,,Scattered Clouds,100,2013-05-15 08:35:00
2:55 AM,67.8,38.5,34,29.87,10.0,East,12.7,-,N/A,,Scattered Clouds,100,2013-05-15 08:55:00
3:15 AM,65.8,39.2,38,29.88,10.0,East,10.4,-,N/A,,Scattered Clouds,90,2013-05-15 09:15:00
3:35 AM,65.7,37.4,35,29.87,10.0,ESE,13.8,17.3,N/A,,Clear,110,2013-05-15 09:35:00
3:55 AM,64.6,38.3,38,29.88,10.0,East,12.7,-,N/A,,Clear,80,2013-05-15 09:55:00
4:15 AM,64.4,38.5,38,29.88,10.0,East,12.7,-,N/A,,Clear,100,2013-05-15 10:15:00
4:35 AM,63.5,38.3,39,29.88,10.0,East,10.4,-,N/A,,Clear,80,2013-05-15 10:35:00
4:55 AM,63.1,38.5,40,29.87,10.0,East,11.5,-,N/A,,Clear,100,2013-05-15 10:55:00
5:15 AM,62.2,38.5,41,29.88,10.0,East,6.9,-,N/A,,Clear,90,2013-05-15 11:15:00
5:35 AM,62.1,37.8,41,29.88,10.0,ENE,8.1,-,N/A,,Clear,70,2013-05-15 11:35:00
5:55 AM,61.9,38.1,41,29.88,10.0,East,6.9,-,N/A,,Clear,80,2013-05-15 11:55:00
6:15 AM,61.5,37.4,41,29.90,10.0,East,6.9,-,N/A,,Clear,80,2013-05-15 12:15:00
6:35 AM,62.6,37.0,39,29.90,10.0,East,6.9,-,N/A,,Clear,80,2013-05-15 12:35:00
6:55 AM,62.6,36.7,38,29.93,10.0,ENE,10.4,-,N/A,,Clear,60,2013-05-15 12:55:00
7:15 AM,63.1,36.0,36,29.95,10.0,ENE,9.2,-,N/A,,Clear,70,2013-05-15 13:15:00
7:35 AM,63.5,36.0,36,29.96,10.0,ENE,8.1,-,N/A,,Clear,70,2013-05-15 13:35:00
7:55 AM,64.0,36.5,36,29.97,10.0,ENE,11.5,-,N/A,,Clear,60,2013-05-15 13:55:00
8:15 AM,64.8,38.1,37,29.98,10.0,East,13.8,-,N/A,,Clear,90,2013-05-15 14:15:00
8:35 AM,65.8,38.8,37,29.97,10.0,East,15.0,-,N/A,,Clear,100,2013-05-15 14:35:00
8:55 AM,66.6,39.0,36,29.97,10.0,East,12.7,-,N/A,,Clear,90,2013-05-15 14:55:00
9:15 AM,68.9,38.7,33,29.98,10.0,East,15.0,20.7,N/A,,Clear,100,2013-05-15 15:15:00
9:35 AM,68.2,38.5,34,29.98,10.0,East,17.3,-,N/A,,Clear,100,2013-05-15 15:35:00
9:55 AM,67.8,38.8,35,29.97,10.0,East,18.4,-,N/A,,Clear,90,2013-05-15 15:55:00
10:15 AM,71.1,39.0,31,29.96,10.0,East,17.3,25.3,N/A,,Clear,90,2013-05-15 16:15:00
10:35 AM,72.7,38.8,29,29.95,10.0,East,17.3,28.8,N/A,,Clear,90,2013-05-15 16:35:00
10:55 AM,73.4,37.8,27,29.95,10.0,East,23.0,27.6,N/A,,Clear,100,2013-05-15 16:55:00
11:15 AM,73.9,37.8,27,29.95,10.0,ESE,20.7,28.8,N/A,,Clear,110,2013-05-15 17:15:00
11:55 AM,76.3,38.3,25,29.94,10.0,East,18.4,24.2,N/A,,Clear,100,2013-05-15 17:55:00
12:15 PM,77.0,37.2,24,29.93,10.0,East,20.7,26.5,N/A,,Clear,100,2013-05-15 18:15:00
12:35 PM,76.1,37.6,25,29.92,10.0,ESE,16.1,35.7,N/A,,Clear,110,2013-05-15 18:35:00
12:55 PM,79.0,38.1,23,29.91,10.0,ESE,18.4,-,N/A,,Clear,120,2013-05-15 18:55:00
1:15 PM,78.6,37.9,23,29.90,10.0,ESE,18.4,24.2,N/A,,Clear,110,2013-05-15 19:15:00
1:35 PM,81.0,38.3,22,29.89,10.0,ESE,18.4,25.3,N/A,,Clear,120,2013-05-15 19:35:00
1:55 PM,81.1,38.5,22,29.89,10.0,East,16.1,23.0,N/A,,Clear,100,2013-05-15 19:55:00
2:15 PM,81.1,39.0,22,29.89,10.0,ESE,13.8,21.9,N/A,,Clear,120,2013-05-15 20:15:00
2:35 PM,82.4,39.6,22,29.89,10.0,ESE,12.7,17.3,N/A,,Clear,120,2013-05-15 20:35:00
2:55 PM,82.0,39.7,22,29.88,10.0,East,11.5,20.7,N/A,,Clear,90,2013-05-15 20:55:00
3:15 PM,82.4,39.7,22,29.88,10.0,ESE,13.8,24.2,N/A,,Clear,110,2013-05-15 21:15:00
3:35 PM,82.0,39.7,22,29.87,10.0,East,17.3,23.0,N/A,,Clear,90,2013-05-15 21:35:00
3:55 PM,81.7,39.9,23,29.87,10.0,East,17.3,24.2,N/A,,Clear,90,2013-05-15 21:55:00
4:15 PM,81.7,39.9,23,29.87,10.0,ENE,16.1,23.0,N/A,,Clear,70,2013-05-15 22:15:00
4:35 PM,81.7,39.9,23,29.86,10.0,East,17.3,23.0,N/A,,Clear,90,2013-05-15 22:35:00
4:55 PM,81.1,39.7,23,29.86,10.0,East,18.4,25.3,N/A,,Clear,90,2013-05-15 22:55:00
5:15 PM,79.7,39.7,24,29.86,10.0,East,16.1,-,N/A,,Clear,90,2013-05-15 23:15:00
5:35 PM,80.6,39.6,23,29.85,10.0,East,17.3,23.0,N/A,,Clear,90,2013-05-15 23:35:00
5:55 PM,79.5,39.0,23,29.84,10.0,East,16.1,23.0,N/A,,Clear,90,2013-05-15 23:55:00
6:15 PM,79.2,39.2,24,29.85,10.0,East,16.1,-,N/A,,Clear,90,2013-05-16 00:15:00
6:35 PM,77.7,39.2,25,29.86,10.0,East,13.8,19.6,N/A,,Clear,100,2013-05-16 00:35:00
6:55 PM,76.5,39.0,26,29.86,10.0,East,12.7,-,N/A,,Clear,100,2013-05-16 00:55:00
7:15 PM,75.6,39.0,27,29.87,10.0,East,9.2,-,N/A,,Clear,90,2013-05-16 01:15:00
7:35 PM,74.3,38.7,28,29.87,10.0,East,10.4,-,N/A,,Clear,90,2013-05-16 01:35:00
7:55 PM,73.0,38.3,28,29.87,10.0,East,9.2,-,N/A,,Clear,90,2013-05-16 01:55:00
8:15 PM,71.1,38.3,30,29.88,10.0,East,9.2,-,N/A,,Clear,80,2013-05-16 02:15:00
8:35 PM,70.9,38.3,30,29.88,10.0,East,10.4,-,N/A,,Clear,80,2013-05-16 02:35:00
8:55 PM,70.7,38.5,31,29.88,10.0,East,12.7,-,N/A,,Clear,90,2013-05-16 02:55:00
9:15 PM,70.2,38.8,32,29.89,10.0,East,11.5,-,N/A,,Clear,90,2013-05-16 03:15:00
9:35 PM,69.3,38.3,32,29.89,10.0,East,13.8,-,N/A,,Clear,90,2013-05-16 03:35:00
9:55 PM,68.4,38.3,33,29.89,10.0,East,10.4,-,N/A,,Clear,100,2013-05-16 03:55:00
10:15 PM,66.2,38.8,37,29.89,10.0,East,5.8,-,N/A,,Clear,90,2013-05-16 04:15:00
10:35 PM,65.3,38.5,37,29.89,10.0,East,9.2,-,N/A,,Clear,80,2013-05-16 04:35:00
10:55 PM,64.8,37.8,37,29.89,10.0,East,9.2,-,N/A,,Clear,90,2013-05-16 04:55:00
11:15 PM,64.8,37.9,37,29.89,10.0,East,10.4,-,N/A,,Clear,80,2013-05-16 05:15:00
11:35 PM,64.8,36.7,35,29.89,10.0,East,10.4,-,N/A,,Clear,90,2013-05-16 05:35:00
11:55 PM,65.3,36.5,34,29.89,10.0,East,10.4,-,N/A,,Scattered Clouds,90,2013-05-16 05:55:00